map of MIR home
Great Circle Mapper logo
MIR - Airport
Location
City:  Monastir, Tunisia
Name:Habib Bourguiba International Airport
ICAO:DTMB
IATA:MIR

Details
Type:Airport (Aerodrome, Airfield)
Use:Public/Civil, International (customs port of entry)
Latitude:3545'29"N (35.758056)
Longitude:1045'17"E (10.754722)
Elevation:9 ft (3 m)
Variation:2.32E (WMM2015 magnetic declination)
0.09 annual change
Runways:1
Longest:9744 × 148 ft (2970 × 45 m), paved

Time
Time Zone:UTC+1 (DST+2)

Weather
METAR:DTMB 261330Z 34008KT 320V020 9999 BKN020 FEW030CB 26/19 Q1018
TAF:DTMB 261100Z 2612/2712 32012KT 9999 BKN020
TEMPO?2?12/2621 35027KT 3000 -RA -TSSHRA FEW026CB

Related Locations
Nearby:
Farthest:CHT: 11759 mi / 18924 km
Waitangi [Tuuta], Chatham Islands, NZ

Find:

   beyond  
but within

Other Information
Maps:
NOTAMs:
Links:
Sources:

  
flag of Tunisia   

Sectional Chart

Flight Planning
at skyvector.com

Satellite Image

Google Maps Satellite view

 

Copyright © 2004-2016 Karl L. Swartz. All rights reserved.
The Great Circle Mapper name and logo are trademarks of the Great Circle Mapper.
All other trademarks mentioned herein belong to their respective owners.
Please see credits for attibutions and further copyright information.

  Follow gcmap on Facebook Follow gcmap on Twitter Follow gcmap on Google+ GCmap on LinkedIn

hCard Microformat

Geo Microformat